User: anonymous
Location: Hepcat Sky Observatory
(29.9800°N, 95.6500°W)
Time: 20:16:11
(UTC-05:00)
Language:

SL-16 Debris - Orbit

View from above orbital plane
View from above orbital plane
View from above satellite
View from above satellite

Ground track
Ground track

The orbit data is extracted from the following two-line orbital elements,

1 26076U 99040E   14211.82512215  .00010227  00000-0  92945-3 0  4111
2 26076 028.4778 048.7609 4678027 118.2476 356.5454 06.20861014245928
Epoch (UTC): 30 July 2014 19:48:10
Eccentricity: 0.4678027
inclination: 28.4778°
perigee height: 277 km
apogee height: 11976 km
right ascension of ascending node: 48.7609°
argument of perigee: 118.2476°
revolutions per day: 6.20861014
mean anomaly at epoch: 356.5454°
orbit number at epoch: 24592

The dashed part of the orbit path shows where the satellite is in the earth's shadow,  

DLR